Weather in Mjolby

Sweden     58°19′36″N   15°07′33″E
temp.,
°C
wind,
m/s
gust,
m/s
humid.,
%
clouds,
%
prec.,
mm/h
press.,
hPa
HPBL,
m
22 january, fri
fri2201:00+3s5158352 0.0 9861083
04:00+2s51387100 0.0 986691
07:00+2sse41289100 0.0 984796
10:00+4sse51392100 0.2 980721
13:00+5sw61392100 1.8 9801052
16:00+2ssw4138488 0.2 982828
19:00+1s5148347 0.2 9831024
22:00+2ssw6158529 0.0 9831057
23 january, sat
sat2301:00+3sw6138062 0.1 9861061
04:00+2sw5138381 0.0 989872
07:00+1sw5138441 0.0 992768
10:00+1sw5128234 0.0 994670
13:00+2sw4107721 0.0 997732
16:000ssw2589100 0.0 99797
19:00−1sw1292100 0.0 99723
22:00−1sse1191100 0.0 99721
24 january, sun
sun2401:00−1ne1191100 0.0 99621
04:00−1n1292100 0.0 99453
07:00−1nnw2394100 0.0 99592
10:00−1nnw259039 0.0 995202
13:00+1nw248352 0.0 996314
16:00−1nnw259313 0.0 996136
19:00−2nw249456 0.0 997116
22:00−2nnw2493100 0.0 997131
25 january, mon
mon2501:00−2nnw2591100 0.0 997210
04:00−2nnw2589100 0.0 996272
07:00−2nnw3685100 0.0 997333
10:00−3nw3689100 0.3 997329
13:00−2nw4794100 2.1 998403
16:00−2nw4895100 2.1 998451
19:00−2wnw4896100 3.7 999412
22:00−3wnw4895100 0.8 1000470
26 january, tue
tue2601:00−3w3892100 1.1 1001452
04:00−3w388397 0.0 1002422
07:00−4w278691 0.0 1002264
10:00−3w379281 0.1 1003525
13:00−2wnw478990 0.4 1004546
16:00−2wnw378399 0.1 1005632
19:00−4wnw278781 0.1 1005213
22:00−4wnw26860 0.0 1005142